San Nicolas Island, CA

3:37 PM PDT on June 28, 2017 (GMT -0700)
San Nicolas Island Naval Outlying Field

Weather History for KNSI - January, 2013

Change the Weather History Date:

Saturday, January 5, 2013

  Actual Average Record
Temperature  
Mean Temperature 63 °F -  
Max Temperature 73 °F 58 °F 75 °F (2006)
Min Temperature 53 °F 49 °F 44 °F (2004)
Degree Days  
Heating Degree Days 2    
Growing Degree Days 13 (Base 50)    
Moisture  
Dew Point 47 °F    
Average Humidity 58    
Maximum Humidity 77    
Minimum Humidity 43    
Precipitation  
Precipitation 0.00 in - - ()
Sea Level Pressure  
Sea Level Pressure 30.23 in    
Wind  
Wind Speed 5 mph (West)    
Max Wind Speed 20 mph    
Max Gust Speed 22 mph    
Visibility 5 miles    
Events Rain    
Averages and records for this station are not official NWS values.
T = Trace of Precipitation, MM = Missing Value Source: NWS Daily Summary

Daily Weather History Graph

Daily Weather History Graph

Search for Another Location

Airport or City:

Trip Planner

Search our weather history database for the weather conditions in past years. The results will help you decide how hot, cold, wet, or windy it might be!

Date:

Astronomy

Jan. 05, 2013 Rise Set
Actual Time 7:02 AM PST 5:05 PM PST
Civil Twilight 6:34 AM PST 5:32 PM PST
Nautical Twilight 6:04 AM PST 6:03 PM PST
Astronomical Twilight 5:33 AM PST 6:33 PM PST
Moon 12:24 AM PST (1/5) 11:49 AM PST (1/5)
Length of Visible Light 10h 57m
Length of Day
10h 03m
Last Quarter, 43% of the Moon is Illuminated
Jan 5
Last Quarter
Jan 11
New
Jan 18
First Quarter
Jan 26
Full
Feb 3
Last Quarter

Hourly Weather History & Observations

Time (PST) Temp. Dew Point Humidity Pressure Visibility Wind Dir Wind Speed Gust Speed Precip Events Conditions
12:53 AM 57.9 °F 43.0 °F 58% 30.22 in 3.0 mi NW 5.8 mph - N/A   Haze
1:29 AM 57.2 °F 44.6 °F 63% 30.23 in 1.8 mi NW 4.6 mph - N/A   Haze
1:44 AM 59.0 °F 44.6 °F 59% 30.24 in 3.0 mi WNW 4.6 mph - N/A   Haze
1:53 AM 61.0 °F 44.1 °F 54% 30.23 in 5.0 mi WNW 5.8 mph - N/A   Haze
2:53 AM 62.1 °F 46.0 °F 56% 30.23 in 5.0 mi Calm Calm - N/A   Haze
2:58 AM 62.6 °F 44.6 °F 52% 30.24 in 2.5 mi West 3.5 mph - N/A   Haze
3:16 AM 62.6 °F 46.4 °F 55% 30.24 in 1.0 mi Calm Calm - N/A   Haze
3:23 AM 57.2 °F 46.4 °F 67% 30.24 in 0.5 mi Calm Calm - N/A   Haze
3:53 AM 63.0 °F 45.0 °F 52% 30.22 in 0.2 mi Calm Calm - N/A   Haze
4:16 AM 62.6 °F 44.6 °F 52% 30.24 in 1.0 mi WSW 3.5 mph - N/A   Haze
4:19 AM 62.6 °F 44.6 °F 52% 30.24 in 3.0 mi SW 3.5 mph - N/A   Haze
4:53 AM 62.1 °F 45.0 °F 53% 30.23 in 10.0 mi Calm Calm - N/A   Clear
5:06 AM 60.8 °F 46.4 °F 59% 30.24 in 10.0 mi Calm Calm - N/A   Scattered Clouds
5:15 AM 53.6 °F 44.6 °F 72% 30.25 in 10.0 mi Calm Calm - N/A   Mostly Cloudy
5:23 AM 59.0 °F 46.4 °F 63% 30.25 in 10.0 mi Calm Calm - N/A   Scattered Clouds
5:53 AM 61.0 °F 46.0 °F 58% 30.25 in 10.0 mi Calm Calm - N/A   Clear
6:02 AM 57.2 °F 44.6 °F 63% 30.26 in 1.2 mi Calm Calm - N/A   Haze
6:09 AM 62.6 °F 44.6 °F 52% 30.26 in 0.2 mi WNW 3.5 mph - N/A   Haze
6:20 AM 60.8 °F 44.6 °F 55% 30.26 in 1.5 mi Calm Calm - N/A   Haze
6:30 AM 62.6 °F 44.6 °F 52% 30.26 in 2.5 mi Calm Calm - N/A   Haze
6:38 AM 62.6 °F 44.6 °F 52% 30.26 in 1.0 mi West 4.6 mph - N/A   Haze
6:53 AM 62.1 °F 44.1 °F 52% 30.26 in 1.2 mi West 4.6 mph - N/A   Haze
7:11 AM 62.6 °F 44.6 °F 52% 30.27 in 3.0 mi West 5.8 mph - N/A   Haze
7:53 AM 64.9 °F 46.9 °F 52% 30.27 in 10.0 mi West 6.9 mph - N/A   Clear
8:53 AM 73.9 °F 52.0 °F 46% 30.27 in 10.0 mi WNW 8.1 mph - N/A   Partly Cloudy
9:53 AM 58.1 °F 51.1 °F 77% 30.29 in 7.0 mi NW 8.1 mph - N/A   Partly Cloudy
10:53 AM 58.1 °F 51.1 °F 77% 30.27 in 7.0 mi NW 10.4 mph - N/A   Clear
11:53 AM 72.0 °F 50.0 °F 46% 30.24 in 10.0 mi NW 11.5 mph - N/A   Clear
12:53 PM 59.9 °F 48.9 °F 67% 30.22 in 7.0 mi NW 9.2 mph - N/A   Mostly Cloudy
1:53 PM 71.1 °F 48.9 °F 45% 30.19 in 10.0 mi NNW 8.1 mph - N/A   Clear
2:53 PM 59.7 °F 48.9 °F 67% 30.19 in 7.0 mi NNW 5.8 mph - N/A   Mostly Cloudy
3:53 PM 59.7 °F 48.9 °F 67% 30.19 in 7.0 mi WNW 9.2 mph - N/A   Mostly Cloudy
4:53 PM 66.0 °F 46.9 °F 50% 30.19 in 10.0 mi West 9.2 mph - N/A   Clear
5:53 PM 68.0 °F 45.0 °F 43% 30.19 in 10.0 mi West 9.2 mph - N/A   Clear
6:53 PM 64.9 °F 46.0 °F 50% 30.19 in 10.0 mi West 8.1 mph - N/A   Clear
7:53 PM 66.0 °F 46.9 °F 50% 30.19 in 10.0 mi West 6.9 mph - N/A   Clear
8:53 PM 66.0 °F 46.9 °F 50% 30.20 in 10.0 mi WSW 6.9 mph - N/A   Clear
9:53 PM 66.9 °F 48.9 °F 52% 30.20 in 10.0 mi SW 11.5 mph - N/A   Overcast
10:41 PM 64.4 °F 50.0 °F 59% 30.20 in 5.0 mi SW 12.7 mph - N/A   Haze
10:53 PM 64.9 °F 51.1 °F 61% 30.19 in 7.0 mi SW 11.5 mph - 0.00 in Rain Light Rain
11:26 PM 64.4 °F 51.8 °F 64% 30.20 in 2.5 mi SW 12.7 mph - 0.00 in Rain Light Rain
11:31 PM 64.4 °F 53.6 °F 68% 30.20 in 0.8 mi WSW 12.7 mph - 0.00 in Rain Light Rain
11:42 PM 64.4 °F 53.6 °F 68% 30.20 in 0.5 mi West 16.1 mph 21.9 mph 0.00 in Rain Light Rain
11:48 PM 62.6 °F 51.8 °F 68% 30.20 in 2.0 mi West 19.6 mph - 0.00 in Rain Light Rain
11:53 PM 63.0 °F 52.0 °F 67% 30.18 in 4.0 mi WNW 18.4 mph - 0.00 in Rain Light Rain
11:55 PM 62.6 °F 51.8 °F 68% 30.20 in 4.0 mi WNW 15.0 mph - 0.00 in Rain Light Rain